Sault Ste Marie, MI

6:24 PM EDT on October 19, 2017 (GMT -0400)
Sault Ste Marie Municipal / Sanderson Field

Weather History for KANJ - December, 2014

Change the Weather History Date:

Tuesday, December 2, 2014

  Actual Average Record
Temperature  
Mean Temperature 16 °F 28 °F  
Max Temperature 26 °F 33 °F 55 °F (1982)
Min Temperature 6 °F 22 °F -24 °F (1976)
Degree Days  
Heating Degree Days 49 38  
Month to date heating degree days 97 75  
Since 1 July heating degree days 2204 2007  
Moisture  
Dew Point 15 °F    
Average Humidity 76    
Maximum Humidity 84    
Minimum Humidity 68    
Precipitation  
Precipitation 0.03 in 0.11 in 0.90 in (1921)
Month to date precipitation 0.13 0.21  
Year to date precipitation 37.31 30.37  
Snow  
Snow 0.80 in 1.00 in 8.00 in (1908)
Month to date snowfall 3.7 1.9  
Since 1 July snowfall 69.1 18.6  
Snow Depth 13.00 in    
Sea Level Pressure  
Sea Level Pressure 30.20 in    
Wind  
Wind Speed 8 mph (SSE)    
Max Wind Speed 17 mph    
Max Gust Speed 24 mph    
Visibility 7 miles    
Events Snow    
T = Trace of Precipitation, MM = Missing Value Source: NWS Daily Summary

Daily Weather History Graph

Daily Weather History Graph

Search for Another Location

Airport or City:

Trip Planner

Search our weather history database for the weather conditions in past years. The results will help you decide how hot, cold, wet, or windy it might be!

Date:

Astronomy

Dec. 02, 2014 Rise Set
Actual Time 8:01 AM EST 4:51 PM EST
Civil Twilight 7:27 AM EST 5:26 PM EST
Nautical Twilight 6:49 AM EST 6:03 PM EST
Astronomical Twilight 6:13 AM EST 6:40 PM EST
Moon 2:45 PM EST (12/2) 3:28 AM EST (12/2)
Length of Visible Light 9h 58m
Length of Day
8h 50m
Waxing Gibbous, 84% of the Moon is Illuminated
Dec 2
Waxing Gibbous
Dec 6
Full
Dec 14
Last Quarter
Dec 21
New
Dec 28
First Quarter

Hourly Weather History & Observations

Time (EST) Temp. Windchill Dew Point Humidity Pressure Visibility Wind Dir Wind Speed Gust Speed Precip Events Conditions
12:55 AM 10.0 °F - 3.0 °F 73% 30.63 in 10.0 mi Calm Calm - N/A   Overcast
1:55 AM 7.0 °F 0.1 °F 1.9 °F 80% 30.64 in 10.0 mi SE 3.5 mph - N/A   Overcast
2:39 AM 8.1 °F - 3.0 °F 80% 30.58 in 10.0 mi Calm Calm - N/A   Mostly Cloudy
2:55 AM 9.0 °F 2.4 °F 3.0 °F 77% 30.63 in 10.0 mi SE 3.5 mph - N/A   Overcast
3:55 AM 10.9 °F 2.9 °F 3.9 °F 73% 30.60 in 9.0 mi SE 4.6 mph - 0.00 in Snow Light Snow
4:55 AM 12.0 °F 4.1 °F 7.0 °F 80% 30.56 in 9.0 mi ESE 4.6 mph - 0.00 in   Overcast
5:55 AM 12.9 °F 6.9 °F 9.0 °F 84% 30.54 in 10.0 mi ESE 3.5 mph - N/A   Overcast
6:55 AM 15.1 °F 4.2 °F 10.0 °F 80% 30.52 in 10.0 mi SE 8.1 mph - 0.00 in   Overcast
7:55 AM 15.1 °F 6.4 °F 10.0 °F 80% 30.48 in 10.0 mi SE 5.8 mph - N/A   Mostly Cloudy
8:26 AM 15.1 °F 5.2 °F 10.0 °F 80% 30.41 in 10.0 mi SSE 6.9 mph - N/A   Scattered Clouds
8:55 AM 16.0 °F 7.4 °F 10.9 °F 81% 30.43 in 10.0 mi SSE 5.8 mph - N/A   Partly Cloudy
9:55 AM 19.0 °F 10.0 °F 12.9 °F 77% 30.40 in 10.0 mi South 6.9 mph - N/A   Mostly Cloudy
10:18 AM 19.9 °F 9.3 °F 14.0 °F 78% 30.34 in 10.0 mi South 9.2 mph - N/A   Scattered Clouds
10:45 AM 23.0 °F 13.1 °F 16.0 °F 74% 30.33 in 10.0 mi SSE 9.2 mph 19.6 mph N/A   Mostly Cloudy
10:55 AM 23.0 °F 10.6 °F 16.0 °F 74% 30.36 in 10.0 mi SSE 13.8 mph - N/A   Mostly Cloudy
11:55 AM 25.0 °F 13.6 °F 16.0 °F 69% 30.31 in 10.0 mi SSE 12.7 mph 23.0 mph N/A   Overcast
12:55 PM 26.1 °F 17.6 °F 18.0 °F 71% 30.26 in 10.0 mi SSE 8.1 mph - N/A   Overcast
1:55 PM 26.1 °F 14.0 °F 18.0 °F 71% 30.19 in 10.0 mi SSE 15.0 mph - N/A   Overcast
2:55 PM 26.1 °F 15.0 °F 17.1 °F 69% 30.17 in 10.0 mi South 12.7 mph - N/A   Overcast
3:55 PM 26.1 °F 16.8 °F 17.1 °F 69% 30.14 in 10.0 mi SSE 9.2 mph - N/A   Overcast
4:55 PM 26.1 °F 17.6 °F 17.1 °F 69% 30.10 in 10.0 mi SSE 8.1 mph - N/A   Overcast
5:55 PM 26.1 °F 19.4 °F 17.1 °F 69% 30.08 in 10.0 mi SSE 5.8 mph - N/A   Overcast
6:11 PM 25.0 °F 15.5 °F 18.0 °F 75% 30.03 in 2.5 mi SE 9.2 mph - 0.00 in Snow Light Snow
6:19 PM 24.1 °F 16.0 °F 19.0 °F 81% 30.02 in 1.0 mi SE 6.9 mph - 0.00 in Snow Light Snow
6:25 PM 24.1 °F 17.0 °F 19.9 °F 84% 30.01 in 0.8 mi ESE 5.8 mph - 0.00 in Snow Light Snow
6:43 PM 24.1 °F 18.2 °F 21.0 °F 88% 30.01 in 1.2 mi SE 4.6 mph - 0.02 in Snow Light Snow
6:52 PM 24.8 °F 19.1 °F 21.2 °F 86% 30.00 in 3.0 mi ESE 4.6 mph - 0.02 in Snow Light Snow
6:55 PM 24.1 °F 18.2 °F 21.0 °F 88% 30.03 in 5.0 mi ESE 4.6 mph - 0.02 in Snow Light Snow
7:51 PM 26.6 °F 19.1 °F 17.6 °F 69% 29.98 in 10.0 mi SE 6.9 mph - 0.00 in   Overcast
7:55 PM 26.1 °F 18.4 °F 18.0 °F 71% 30.01 in 10.0 mi SE 6.9 mph - 0.00 in   Overcast
8:45 PM 26.1 °F 16.8 °F 19.0 °F 75% 29.95 in 1.8 mi SSE 9.2 mph - 0.00 in Snow Light Snow
8:55 PM 25.0 °F 15.5 °F 19.9 °F 81% 29.97 in 1.0 mi SSE 9.2 mph - 0.01 in Snow Light Snow
9:08 PM 25.0 °F 14.8 °F 19.9 °F 81% 29.92 in 2.5 mi SSE 10.4 mph - 0.00 in Snow Light Snow
9:12 PM 25.0 °F 13.6 °F 19.9 °F 81% 29.92 in 3.0 mi SSE 12.7 mph - 0.00 in Snow Light Snow
9:46 PM 26.1 °F 17.6 °F 21.0 °F 81% 29.91 in 2.5 mi SSE 8.1 mph - 0.00 in Snow Light Snow
9:55 PM 26.1 °F 17.6 °F 21.0 °F 81% 29.94 in 2.0 mi SSE 8.1 mph - 0.00 in Snow Light Snow
10:00 PM 25.0 °F 16.3 °F 21.0 °F 85% 29.90 in 3.0 mi SSE 8.1 mph - 0.00 in Snow Light Snow
10:55 PM 26.1 °F 16.8 °F 21.9 °F 84% 29.89 in 10.0 mi SSE 9.2 mph - 0.00 in   Overcast
11:25 PM 26.1 °F 18.4 °F 21.9 °F 84% 29.85 in 8.0 mi South 6.9 mph - 0.00 in Snow Light Snow
11:55 PM 26.1 °F 16.8 °F 21.9 °F 84% 29.88 in 6.0 mi South 9.2 mph - 0.00 in Snow Light Snow